TimeCDT,TemperatureF,Dew PointF,Humidity,Sea Level PressureIn,VisibilityMPH,Wind Direction,Wind SpeedMPH,Gust SpeedMPH,PrecipitationIn,Events,Conditions,WindDirDegrees,DateUTC
12:00 AM,66.2,66.2,100,29.66,3.0,Calm,Calm,-,0.00,Rain,Light Rain,0,2012-10-02 05:00:00
12:19 AM,66.2,66.2,100,29.66,1.8,Calm,Calm,-,0.01,Rain,Rain,0,2012-10-02 05:19:00
12:27 AM,66.2,66.2,100,29.67,3.0,Calm,Calm,-,0.01,Rain,Light Rain,0,2012-10-02 05:27:00
12:42 AM,66.2,66.2,100,29.67,10.0,East,3.5,-,0.01,,Overcast,90,2012-10-02 05:42:00
1:12 AM,66.2,66.2,100,29.67,5.0,Calm,Calm,-,0.00,Rain,Light Rain,0,2012-10-02 06:12:00
1:17 AM,66.2,66.2,100,29.67,5.0,Calm,Calm,-,0.00,Rain,Light Rain,0,2012-10-02 06:17:00
1:25 AM,66.2,66.2,100,29.68,1.8,Calm,Calm,-,0.01,Rain,Light Rain,0,2012-10-02 06:25:00
1:35 AM,66.2,66.2,100,29.67,1.2,Calm,Calm,-,0.03,Rain,Light Rain,0,2012-10-02 06:35:00
1:48 AM,66.2,66.2,100,29.68,4.0,Calm,Calm,-,0.04,Rain,Light Rain,0,2012-10-02 06:48:00
1:56 AM,65.8,65.8,100,29.69,8.0,South,3.5,-,0.04,,Overcast,180,2012-10-02 06:56:00
2:20 AM,64.4,64.4,100,29.67,2.0,Calm,Calm,-,N/A,,Mostly Cloudy,0,2012-10-02 07:20:00
2:29 AM,64.4,64.4,100,29.68,4.0,Calm,Calm,-,N/A,,Mostly Cloudy,0,2012-10-02 07:29:00
2:56 AM,64.9,64.9,100,29.68,5.0,Calm,Calm,-,N/A,,Overcast,0,2012-10-02 07:56:00
3:13 AM,64.4,64.4,100,29.67,7.0,Calm,Calm,-,N/A,,Mostly Cloudy,0,2012-10-02 08:13:00
3:21 AM,64.4,64.4,100,29.67,1.5,Calm,Calm,-,N/A,,Mostly Cloudy,0,2012-10-02 08:21:00
3:23 AM,64.4,64.4,100,29.67,0.8,Calm,Calm,-,N/A,,Mostly Cloudy,0,2012-10-02 08:23:00
3:26 AM,64.4,64.4,100,29.68,0.2,Calm,Calm,-,N/A,Fog,Fog,0,2012-10-02 08:26:00
3:42 AM,62.6,62.6,100,29.68,0.2,Calm,Calm,-,N/A,Fog,Fog,0,2012-10-02 08:42:00
3:56 AM,63.0,63.0,100,29.68,0.2,Calm,Calm,-,N/A,Fog,Fog,0,2012-10-02 08:56:00
4:04 AM,64.4,64.4,100,29.68,0.5,Calm,Calm,-,N/A,Fog,Fog,0,2012-10-02 09:04:00
4:26 AM,64.4,64.4,100,29.69,0.5,Calm,Calm,-,N/A,Fog,Fog,0,2012-10-02 09:26:00
4:41 AM,64.4,64.4,100,29.69,0.8,Calm,Calm,-,N/A,,Overcast,0,2012-10-02 09:41:00
4:46 AM,64.4,64.4,100,29.69,1.2,Calm,Calm,-,N/A,,Overcast,0,2012-10-02 09:46:00
4:56 AM,63.9,63.9,100,29.69,1.5,Calm,Calm,-,N/A,,Overcast,0,2012-10-02 09:56:00
5:07 AM,64.4,64.4,100,29.69,2.5,Calm,Calm,-,N/A,,Overcast,0,2012-10-02 10:07:00
5:45 AM,64.4,64.4,100,29.70,4.0,Calm,Calm,-,0.00,Rain,Light Rain,0,2012-10-02 10:45:00
5:56 AM,64.9,64.9,100,29.70,3.0,Calm,Calm,-,0.00,Rain,Light Rain,0,2012-10-02 10:56:00
6:07 AM,64.4,64.4,100,29.71,2.5,Calm,Calm,-,0.00,Rain,Light Rain,0,2012-10-02 11:07:00
6:19 AM,64.4,64.4,100,29.71,3.0,Calm,Calm,-,0.00,Rain,Light Rain,0,2012-10-02 11:19:00
6:56 AM,64.9,64.9,100,29.72,5.0,Calm,Calm,-,0.00,,Mostly Cloudy,0,2012-10-02 11:56:00
7:26 AM,66.2,66.2,100,29.73,6.0,Calm,Calm,-,N/A,,Overcast,0,2012-10-02 12:26:00
7:56 AM,65.8,65.8,100,29.73,10.0,Calm,Calm,-,N/A,,Mostly Cloudy,0,2012-10-02 12:56:00
8:11 AM,66.2,66.2,100,29.74,10.0,Calm,Calm,-,N/A,,Overcast,0,2012-10-02 13:11:00
9:24 AM,69.8,69.8,100,29.75,10.0,Calm,Calm,-,N/A,,Mostly Cloudy,0,2012-10-02 14:24:00
10:45 AM,69.8,66.2,88,29.78,10.0,SSW,9.2,-,N/A,,Mostly Cloudy,210,2012-10-02 15:45:00
10:56 AM,70.9,66.9,87,29.78,10.0,West,8.1,-,N/A,,Mostly Cloudy,260,2012-10-02 15:56:00
11:08 AM,69.8,66.2,88,29.79,10.0,WSW,4.6,-,N/A,,Overcast,240,2012-10-02 16:08:00
11:33 AM,69.8,64.4,83,29.79,10.0,SW,6.9,-,N/A,,Overcast,230,2012-10-02 16:33:00
11:56 AM,70.0,63.9,81,29.80,10.0,SW,11.5,-,N/A,,Mostly Cloudy,220,2012-10-02 16:56:00
12:56 PM,70.0,63.0,78,29.79,10.0,SSW,5.8,-,N/A,,Mostly Cloudy,200,2012-10-02 17:56:00
1:56 PM,70.0,63.9,81,29.80,10.0,WNW,10.4,-,N/A,,Mostly Cloudy,290,2012-10-02 18:56:00
2:29 PM,64.4,64.4,100,29.82,1.8,WSW,9.2,-,0.00,Rain,Light Rain,250,2012-10-02 19:29:00
2:33 PM,64.4,64.4,100,29.82,1.2,SW,6.9,-,0.00,Rain,Light Rain,230,2012-10-02 19:33:00
2:36 PM,64.4,64.4,100,29.82,1.0,SW,9.2,-,0.00,Rain,Light Rain,230,2012-10-02 19:36:00
2:45 PM,64.4,64.4,100,29.82,1.5,WSW,8.1,-,0.00,Rain,Light Rain,240,2012-10-02 19:45:00
2:47 PM,64.4,64.4,100,29.82,2.0,WSW,9.2,-,0.00,Rain,Light Rain,250,2012-10-02 19:47:00
3:19 PM,66.2,64.4,94,29.83,10.0,WSW,5.8,-,N/A,,Mostly Cloudy,240,2012-10-02 20:19:00
3:56 PM,64.9,61.9,90,29.85,10.0,SSW,10.4,-,N/A,,Overcast,210,2012-10-02 20:56:00
4:17 PM,66.2,62.6,88,29.85,10.0,SW,10.4,-,N/A,,Mostly Cloudy,230,2012-10-02 21:17:00
4:56 PM,64.9,61.9,90,29.87,9.0,SW,6.9,-,N/A,,Overcast,230,2012-10-02 21:56:00
5:43 PM,64.4,60.8,88,29.89,10.0,SSW,8.1,-,N/A,,Overcast,210,2012-10-02 22:43:00
5:56 PM,63.9,61.0,90,29.90,10.0,SSW,6.9,-,N/A,,Mostly Cloudy,210,2012-10-02 22:56:00
6:56 PM,63.0,61.0,93,29.92,10.0,SSW,5.8,-,N/A,,Overcast,210,2012-10-02 23:56:00
7:14 PM,62.6,60.8,94,29.93,3.0,SW,4.6,-,N/A,,Mostly Cloudy,220,2012-10-03 00:14:00
7:22 PM,62.6,62.6,100,29.93,2.0,Calm,Calm,-,0.00,Rain,Light Rain,0,2012-10-03 00:22:00
7:41 PM,62.6,62.6,100,29.94,4.0,SW,5.8,-,0.00,,Overcast,220,2012-10-03 00:41:00
7:56 PM,61.0,61.0,100,29.95,4.0,SW,4.6,-,0.00,Rain,Light Rain,220,2012-10-03 00:56:00
8:56 PM,61.0,59.0,93,29.97,10.0,SSW,8.1,-,0.00,,Overcast,200,2012-10-03 01:56:00
9:56 PM,61.0,59.0,93,29.99,10.0,SW,4.6,-,N/A,,Overcast,220,2012-10-03 02:56:00
10:56 PM,59.9,57.9,93,30.00,10.0,SSW,4.6,-,N/A,,Overcast,200,2012-10-03 03:56:00
11:07 PM,60.8,57.2,88,30.00,10.0,South,6.9,-,N/A,,Overcast,190,2012-10-03 04:07:00
11:56 PM,59.9,57.9,93,30.01,10.0,Calm,Calm,-,N/A,,Overcast,0,2012-10-03 04:56:00